Stündliche Wetter Abergavenny

Heute, 23 Juni, Mittwoch

Zeit Temperatur Niederschläge Wind Luftdruck Luftfeuchtigkeit
00:00 +9°C° 0 mm 1 m/S 752 mmHg 88%
01:00 +9°C° 0 mm 1 m/S 752 mmHg 88%
02:00 +8°C° 0 mm 1 m/S 752 mmHg 89%
03:00 +8°C° 0 mm 1 m/S 752 mmHg 89%
04:00 +9°C° 0 mm 1 m/S 752 mmHg 87%
05:00 +10°C° 0 mm 1 m/S 752 mmHg 85%
06:00 +11°C° 0 mm 1 m/S 752 mmHg 84%
07:00 +12°C° 0 mm 1 m/S 752 mmHg 78%
08:00 +14°C° 0 mm 1 m/S 752 mmHg 72%
09:00 +16°C° 0 mm 1 m/S 752 mmHg 66%
10:00 +16°C° 0 mm 1 m/S 752 mmHg 63%
11:00 +18°C° 0 mm 1 m/S 752 mmHg 60%
12:00 +19°C° 0 mm 1 m/S 752 mmHg 56%
13:00 +19°C° 0 mm 1 m/S 752 mmHg 58%
14:00 +18°C° 0 mm 2 m/S 752 mmHg 59%
15:00 +18°C° 0 mm 2 m/S 752 mmHg 60%
16:00 +18°C° 0 mm 2 m/S 752 mmHg 65%
17:00 +17°C° 0 mm 2 m/S 751 mmHg 70%
18:00 +17°C° 0 mm 2 m/S 751 mmHg 75%
19:00 +15°C° 0 mm 2 m/S 752 mmHg 79%
20:00 +14°C° 0 mm 2 m/S 752 mmHg 83%
21:00 +13°C° 0 mm 2 m/S 752 mmHg 88%
22:00 +13°C° 0 mm 1 m/S 752 mmHg 86%
23:00 +13°C° 0 mm 1 m/S 752 mmHg 85%

Morgen, 24 Juni, Donnerstag

Zeit Temperatur Niederschläge Wind Luftdruck Luftfeuchtigkeit
00:00 +13°C° 0 mm 1 m/S 752 mmHg 83%
01:00 +13°C° 0 mm 1 m/S 752 mmHg 83%
02:00 +12°C° 0 mm 0 m/S 752 mmHg 82%
03:00 +12°C° 0 mm 0 m/S 751 mmHg 82%
04:00 +12°C° 0 mm 0 m/S 751 mmHg 83%
05:00 +12°C° 0 mm 0 m/S 751 mmHg 84%
06:00 +12°C° 0 mm 0 m/S 751 mmHg 85%
07:00 +13°C° 0.1 mm 0 m/S 751 mmHg 84%
08:00 +13°C° 0.1 mm 0 m/S 751 mmHg 83%
09:00 +15°C° 0.1 mm 1 m/S 751 mmHg 82%
10:00 +15°C° 0 mm 1 m/S 751 mmHg 82%
11:00 +15°C° 0 mm 1 m/S 751 mmHg 82%
12:00 +16°C° 0 mm 1 m/S 751 mmHg 82%
13:00 +18°C° 0 mm 1 m/S 751 mmHg 80%
14:00 +18°C° 0 mm 2 m/S 751 mmHg 79%
15:00 +19°C° 0 mm 2 m/S 750 mmHg 77%
16:00 +18°C° 0.2 mm 2 m/S 750 mmHg 81%
17:00 +18°C° 0.2 mm 3 m/S 750 mmHg 84%
18:00 +18°C° 0.2 mm 3 m/S 750 mmHg 88%
19:00 +17°C° 0.1 mm 3 m/S 750 mmHg 90%
20:00 +16°C° 0.1 mm 3 m/S 750 mmHg 93%
21:00 +15°C° 0.1 mm 2 m/S 750 mmHg 95%
22:00 +15°C° 0 mm 2 m/S 749 mmHg 95%
23:00 +14°C° 0 mm 2 m/S 749 mmHg 95%

übermorgen, 25 Juni, Freitag

Zeit Temperatur Niederschläge Wind Luftdruck Luftfeuchtigkeit
00:00 +14°C° 0 mm 2 m/S 749 mmHg 96%
01:00 +14°C° 0.8 mm 2 m/S 748 mmHg 96%
02:00 +14°C° 0.8 mm 2 m/S 748 mmHg 96%
03:00 +13°C° 0.8 mm 2 m/S 748 mmHg 97%
04:00 +13°C° 0.1 mm 2 m/S 748 mmHg 97%
05:00 +14°C° 0.1 mm 2 m/S 747 mmHg 96%
06:00 +14°C° 0.1 mm 2 m/S 747 mmHg 96%
07:00 +14°C° 0.5 mm 1 m/S 747 mmHg 96%
08:00 +14°C° 0.5 mm 1 m/S 747 mmHg 97%
09:00 +14°C° 0.5 mm 1 m/S 747 mmHg 97%
10:00 +14°C° 0.4 mm 1 m/S 746 mmHg 94%
11:00 +15°C° 0.4 mm 2 m/S 746 mmHg 91%
12:00 +15°C° 0.4 mm 2 m/S 746 mmHg 88%
13:00 +15°C° 0.6 mm 2 m/S 746 mmHg 88%
14:00 +14°C° 0.6 mm 3 m/S 746 mmHg 87%
15:00 +14°C° 0.6 mm 3 m/S 746 mmHg 86%
16:00 +13°C° 0.2 mm 3 m/S 746 mmHg 85%
17:00 +13°C° 0.2 mm 3 m/S 746 mmHg 84%
18:00 +14°C° 0.2 mm 2 m/S 745 mmHg 83%
19:00 +13°C° 0 mm 2 m/S 746 mmHg 85%
20:00 +12°C° 0 mm 2 m/S 746 mmHg 87%
21:00 +9°C° 0 mm 2 m/S 746 mmHg 89%
22:00 +9°C° 0 mm 2 m/S 746 mmHg 89%
23:00 +9°C° 0 mm 1 m/S 746 mmHg 88%

26 Juni, Samstag

Zeit Temperatur Niederschläge Wind Luftdruck Luftfeuchtigkeit
00:00 +9°C° 0 mm 1 m/S 746 mmHg 88%
01:00 +9°C° 0 mm 1 m/S 745 mmHg 86%
02:00 +9°C° 0 mm 1 m/S 745 mmHg 85%
03:00 +10°C° 0 mm 1 m/S 745 mmHg 84%
04:00 +10°C° 0 mm 1 m/S 745 mmHg 84%
05:00 +11°C° 0 mm 1 m/S 745 mmHg 85%
06:00 +11°C° 0 mm 1 m/S 745 mmHg 86%
07:00 +12°C° 0 mm 1 m/S 745 mmHg 85%
08:00 +13°C° 0 mm 1 m/S 745 mmHg 83%
09:00 +14°C° 0 mm 2 m/S 745 mmHg 82%
10:00 +15°C° 0.2 mm 2 m/S 745 mmHg 81%
11:00 +16°C° 0.2 mm 2 m/S 745 mmHg 79%
12:00 +17°C° 0.2 mm 2 m/S 745 mmHg 78%
13:00 +17°C° 0.6 mm 2 m/S 745 mmHg 79%
14:00 +17°C° 0.6 mm 2 m/S 745 mmHg 80%
15:00 +17°C° 0.6 mm 2 m/S 745 mmHg 81%
16:00 +17°C° 0.7 mm 2 m/S 744 mmHg 84%
17:00 +17°C° 0.7 mm 2 m/S 744 mmHg 87%
18:00 +16°C° 0.7 mm 2 m/S 744 mmHg 90%
19:00 +15°C° 0.5 mm 2 m/S 744 mmHg 92%
20:00 +15°C° 0.5 mm 2 m/S 744 mmHg 94%
21:00 +13°C° 0.5 mm 3 m/S 744 mmHg 96%
22:00 +13°C° 0.4 mm 3 m/S 744 mmHg 97%
23:00 +13°C° 0.4 mm 3 m/S 744 mmHg 97%

27 Juni, Sonntag

Zeit Temperatur Niederschläge Wind Luftdruck Luftfeuchtigkeit
00:00 +13°C° 0.4 mm 3 m/S 744 mmHg 98%
01:00 +13°C° 0.1 mm 3 m/S 744 mmHg 98%
02:00 +13°C° 0.1 mm 3 m/S 744 mmHg 98%
03:00 +13°C° 0.1 mm 3 m/S 744 mmHg 97%
04:00 +13°C° 0.1 mm 4 m/S 743 mmHg 97%
05:00 +13°C° 0.1 mm 5 m/S 743 mmHg 97%
06:00 +13°C° 0.1 mm 5 m/S 743 mmHg 97%
07:00 +13°C° 1 mm 5 m/S 743 mmHg 97%
08:00 +13°C° 1 mm 5 m/S 743 mmHg 97%
09:00 +13°C° 1 mm 6 m/S 743 mmHg 97%
10:00 +13°C° 1 mm 5 m/S 743 mmHg 97%
11:00 +14°C° 1 mm 5 m/S 743 mmHg 97%
12:00 +14°C° 1 mm 5 m/S 743 mmHg 97%
13:00 +14°C° 0.8 mm 5 m/S 743 mmHg 97%
14:00 +14°C° 0.8 mm 5 m/S 744 mmHg 97%
15:00 +14°C° 0.8 mm 5 m/S 744 mmHg 97%
16:00 +14°C° 0.2 mm 5 m/S 744 mmHg 97%
17:00 +14°C° 0.2 mm 5 m/S 744 mmHg 97%
18:00 +14°C° 0.2 mm 5 m/S 744 mmHg 97%
19:00 +14°C° 0.2 mm 4 m/S 745 mmHg 97%
20:00 +14°C° 0.2 mm 4 m/S 745 mmHg 97%
21:00 +14°C° 0.2 mm 4 m/S 745 mmHg 97%
22:00 +13°C° 0.1 mm 4 m/S 745 mmHg 97%
23:00 +13°C° 0.1 mm 4 m/S 745 mmHg 97%

28 Juni, Montag

Zeit Temperatur Niederschläge Wind Luftdruck Luftfeuchtigkeit
00:00 +13°C° 0.1 mm 4 m/S 745 mmHg 97%
01:00 +13°C° 0.4 mm 4 m/S 745 mmHg 97%
02:00 +13°C° 0.4 mm 4 m/S 745 mmHg 97%
03:00 +13°C° 0.4 mm 5 m/S 745 mmHg 96%
04:00 +13°C° 0.8 mm 5 m/S 745 mmHg 96%
05:00 +13°C° 0.8 mm 5 m/S 745 mmHg 95%
06:00 +13°C° 0.8 mm 6 m/S 745 mmHg 95%
07:00 +13°C° 0.3 mm 6 m/S 745 mmHg 94%
08:00 +13°C° 0.3 mm 6 m/S 745 mmHg 93%
09:00 +14°C° 0.3 mm 6 m/S 745 mmHg 93%
10:00 +14°C° 0.4 mm 6 m/S 746 mmHg 92%
11:00 +14°C° 0.4 mm 6 m/S 746 mmHg 92%
12:00 +14°C° 0.4 mm 6 m/S 746 mmHg 92%
13:00 +14°C° 1.3 mm 6 m/S 746 mmHg 93%
14:00 +14°C° 1.3 mm 6 m/S 746 mmHg 94%
15:00 +14°C° 1.3 mm 5 m/S 746 mmHg 95%
16:00 +14°C° 1.2 mm 5 m/S 746 mmHg 95%
17:00 +14°C° 1.2 mm 5 m/S 747 mmHg 95%
18:00 +14°C° 1.2 mm 5 m/S 747 mmHg 95%
19:00 +14°C° 0.6 mm 4 m/S 747 mmHg 95%
20:00 +13°C° 0.6 mm 4 m/S 747 mmHg 95%
21:00 +13°C° 0.6 mm 4 m/S 748 mmHg 95%
22:00 +13°C° 0.1 mm 4 m/S 748 mmHg 95%
23:00 +13°C° 0.1 mm 4 m/S 748 mmHg 96%
Mehr zeigen

Wir brauchen deine Erlaubnis

Meteoprog und unser Service Anbieter werden persönliche Daten aufbewahren, so wie Cookies, Geräte Bezeichnung oder ähnliche Technologien von deinem Gerät und Prozess, so wie Persönliche Daten Inhalte und Werbungen, genauso wie social Media und den Verkehr zu analysieren.

  • Aufbewahrung und/oder Zugang zu deiner Geräte Informationen.

    Cookies, Geräte Bezeichnung oder andere Informationen, können aufbewahrt oder Zugang zu deinem Gerät erhalten, für den Grund, der oben angegeben wird.

  • Personalisierte Werbung und Inhalte, Messungen, Einblick in das Publikum und Produkt Entwicklung.

    Werbungen und Inhalte können personalisiert werden, basierend auf ein Profil. Mehr Daten können besser personalisierte Werbungen und Inhalte hinzufügen. Werbung und Inhalte können gezeigt und gemessen werden. Einblicke über das Publikum, welche die Werbung gesehen haben und den Inhalt, können abgeleitet werden. So wie Daten können genutzt werden, um es zu verbessern oder die Benutzer Erfahrung zu verbessern das System und die Software.

Wenn du “Ich stimme zu” klickst, erlaubst du uns, die Cookies zu benutzen die Geräte Bezeichnung, den Web oder ähnliche Technologien zu benutzen. Deine Settings, können in deinem Gerät bei deinem Browser geändert werden.

Für den bestimmten Zweck, berechtigten Interessen beruhen darauf, mehr als auf den Inhalt. Du kannst mehr darüber in unseren Privaten und Cookie Politik lesen.